Location: ???? ?????
(37.9132°N, 22.9869°E)
Time: 09:57:36
(UTC+00:00)

SeaSat 1 - Pass Details

Date: 04 August 2024
Orbit: 739 x 743 km, 108.0° (Epoch: 14 September)

Event Time Altitude Azimuth Distance (km) Brightness Sun altitude
Exits shadow 22:37:11 24° 38° (NE) 1,502 4.4 -35.2°
Drops below altitude 10° 22:40:21 10° 0° (N) 2,259 5.7 -35.2°
Sets 22:42:56 0° 348° (NNW) 3,187 6.7 -35.1°
